Wind_Speed
5 6 8 9 10 11 13 14 15 15 15 17 17 18 17 18 18 18 18 19 20 19 20 21 22 22 22 23 23 23 23 23 23 24 24 24 25 26 27 27 27 28 28 29
5 6 7 8 10 12 12 13 13 13 14 16 16 17 17 17 16 16 17 17 18 18 19 20 21 21 22 22 22 23 23 24 23 23 23 24 25 25 26 27 29 30 30 30
6 6 8 9 11 12 12 12 12 13 14 16 17 15 15 15 15 15 16 16 17 17 18 19 19 19 20 20 21 22 23 23 23 23 23 24 24 24 25 27 29 30 30 30
7 7 9 10 11 12 11 11 12 13 14 14 15 15 13 14 14 14 15 15 15 16 17 18 18 18 19 20 21 20 20 21 21 22 23 24 25 26 27 28 29 30 30 30
7 8 9 9 11 12 12 11 11 12 12 13 13 13 12 12 13 14 14 14 14 15 16 17 17 18 18 19 19 19 20 21 21 22 24 25 25 26 27 28 29 30 29 29
9 9 10 10 10 12 12 12 12 12 12 12 13 13 12 13 13 14 14 14 14 14 15 16 16 16 17 17 18 19 20 20 21 22 23 24 25 26 27 27 28 28 27 28
8 8 8 9 10 11 12 11 12 11 10 10 10 11 11 12 13 13 14 14 14 15 15 15 16 17 17 17 18 19 19 20 21 22 22 23 25 25 26 27 27 26 27 28
6 6 7 9 10 10 10 10 11 12 11 10 9 9 10 10 11 13 13 13 13 14 14 15 16 17 17 17 18 18 19 19 20 20 22 23 24 24 25 25 26 26 27 27
7 7 9 10 10 10 9 9 9 11 10 10 10 10 10 10 10 11 10 10 12 13 14 14 15 16 16 17 18 19 19 19 19 20 21 22 22 22 23 23 24 25 25 26
8 8 9 10 10 9 9 9 9 9 10 10 10 11 11 10 10 10 10 10 11 12 13 14 15 15 16 17 18 17 17 17 17 18 20 20 21 22 21 22 23 24 24 24
9 9 8 9 9 9 10 10 10 10 10 11 11 10 11 11 11 11 10 10 11 12 13 13 14 14 15 15 15 15 15 16 16 17 19 20 21 20 20 21 21 22 23 23
9 8 8 8 8 10 11 11 11 11 11 10 10 9 10 10 10 9 9 10 11 12 12 12 12 12 13 13 14 15 15 15 16 17 18 19 19 19 20 20 21 22 22 22
9 9 8 9 9 10 11 11 12 12 11 10 10 10 10 9 9 8 9 10 10 11 11 11 11 11 13 13 14 15 15 16 16 17 17 18 18 18 19 20 20 21 22 21
9 8 9 10 10 10 11 12 13 13 12 11 11 11 11 10 10 10 10 10 11 11 11 11 12 12 12 12 13 13 14 15 16 16 17 17 17 18 18 19 19 20 20 21
9 8 9 9 10 11 13 13 13 12 13 13 12 12 12 12 12 11 10 10 10 10 10 10 11 11 12 12 13 14 15 15 15 16 17 18 18 17 18 18 19 19 20 20
10 10 10 9 10 11 12 13 13 13 12 12 12 12 12 12 13 12 11 11 10 10 9 10 11 11 11 12 13 14 14 15 16 17 18 18 17 17 17 18 18 19 19 19
11 11 11 11 11 12 12 13 14 14 13 13 13 13 13 13 12 12 12 11 11 10 10 11 10 11 12 13 14 14 14 15 16 17 18 17 17 18 17 18 18 18 18 19
12 12 12 12 13 13 14 14 15 14 15 15 14 14 14 14 13 13 12 12 11 11 11 11 11 12 13 13 13 14 15 15 16 17 17 17 18 18 19 19 18 18 18 18
12 12 13 13 14 14 15 15 15 15 15 15 14 14 14 14 14 13 13 12 12 11 11 12 12 12 12 12 13 14 15 15 16 17 17 17 18 18 18 18 18 18 18 18
12 13 14 15 15 15 16 16 16 16 15 14 14 15 15 14 14 13 13 13 13 12 12 12 12 12 12 12 13 13 14 15 16 17 17 17 17 17 18 18 18 18 18 18
14 15 15 16 16 16 17 17 17 16 15 15 15 15 15 15 14 14 14 14 13 13 11 11 11 12 12 11 11 12 13 15 16 16 17 17 17 17 17 17 18 18 18 19
16 16 16 17 17 17 18 18 17 16 16 16 15 15 16 16 15 15 15 14 13 13 12 11 11 11 11 11 11 12 13 15 15 16 16 16 16 16 17 18 19 19 19 19
17 17 18 18 18 18 18 18 17 16 15 15 16 16 16 16 15 14 13 13 12 12 12 11 11 11 11 11 11 11 13 14 15 16 16 16 16 17 17 18 19 19 20 20
18 18 18 19 19 19 18 18 17 16 15 15 15 15 15 16 14 12 12 12 12 12 11 11 11 11 10 10 11 12 13 14 14 15 15 15 16 17 17 18 19 20 20 21
19 19 19 19 19 19 17 17 17 16 14 14 14 15 14 13 12 12 12 11 11 11 10 9 9 10 10 10 11 12 13 13 13 13 13 14 15 16 17 19 20 20 20 21
19 20 20 20 19 18 17 17 16 15 15 14 13 13 13 13 12 11 10 10 9 9 8 8 8 9 10 10 11 12 12 12 12 12 13 14 15 16 17 18 19 20 21 22
Wind_Direction
269 275 280 279 275 275 274 271 270 270 268 267 269 271 271 272 274 272 268 268 267 267 266 269 272 274 276 276 275 277 277 277 278 280 281 282 283 282 283 284 285 284 284 285
279 284 284 280 276 274 274 277 275 274 273 274 276 276 276 274 275 275 270 268 269 266 270 273 275 274 274 276 276 277 277 276 278 281 281 281 283 282 282 285 287 288 286 285
298 289 278 277 279 278 276 279 279 282 279 280 281 280 276 271 274 275 274 271 268 269 271 271 274 277 278 280 282 279 277 274 276 278 279 280 281 282 284 286 287 288 287 288
298 286 280 281 280 279 283 282 280 284 286 287 284 285 276 274 276 277 277 276 273 272 271 272 276 282 283 283 282 281 280 278 279 280 280 281 283 284 285 287 289 291 291 292
299 287 286 288 288 288 287 286 283 284 284 286 284 283 281 278 280 280 281 279 277 275 272 273 276 281 282 282 284 286 285 283 284 285 285 285 286 287 287 288 290 291 291 292
299 294 294 297 296 292 292 291 287 283 282 282 282 281 281 282 282 284 285 279 276 274 273 275 279 280 283 284 283 286 288 287 286 286 288 288 288 290 291 292 292 292 293 294
294 295 300 299 296 295 296 295 289 288 292 287 284 285 286 283 284 285 287 282 276 279 279 277 280 283 286 287 287 289 288 288 288 288 290 293 292 294 295 295 292 292 294 295
316 314 314 312 310 309 310 306 305 305 303 297 291 293 296 296 293 289 284 280 275 278 275 276 281 287 288 291 292 293 292 291 291 292 294 296 296 298 299 298 295 295 296 296
337 335 330 329 326 319 315 315 314 313 308 304 306 307 304 305 302 298 291 283 277 275 276 280 285 288 292 295 296 298 298 294 293 296 298 299 300 302 302 300 300 300 300 300
341 335 333 337 336 336 329 326 321 320 319 314 315 314 312 314 311 308 302 290 283 283 286 287 288 290 294 297 299 303 303 302 300 302 303 302 302 303 301 302 303 304 305 306
346 342 340 340 343 346 344 340 333 325 322 320 323 324 317 316 312 311 302 294 290 291 290 288 290 292 295 297 302 305 305 305 305 306 305 304 306 306 305 305 307 308 308 308
347 346 341 339 342 342 343 341 338 328 325 320 321 325 320 313 313 311 307 300 296 294 293 293 294 296 300 302 305 307 309 309 311 311 309 308 309 308 309 310 311 311 312 313
346 348 343 338 337 337 339 340 339 332 326 324 323 321 321 319 313 304 305 305 300 294 294 294 295 297 302 304 307 311 313 313 314 314 313 312 312 314 314 314 314 316 317 318
343 344 341 335 334 333 333 335 334 332 329 324 323 319 318 318 318 304 300 301 301 298 299 301 303 301 303 305 307 312 317 317 316 318 319 321 322 322 321 319 320 320 320 320
344 341 338 333 329 331 330 328 330 329 327 324 322 314 315 315 313 309 304 301 300 302 300 303 306 307 305 306 312 315 315 318 320 323 324 325 326 326 325 324 323 323 323 323
337 335 333 330 327 328 327 327 327 327 325 321 318 312 311 311 311 308 307 305 303 307 307 307 308 314 314 314 317 319 320 322 325 327 328 329 328 329 329 327 325 325 326 326
331 328 326 327 324 324 324 324 323 322 322 320 317 315 312 312 309 307 307 307 303 305 308 307 306 313 316 313 314 317 321 326 329 330 331 332 331 332 332 330 328 328 328 330
327 326 324 323 322 321 326 321 318 315 314 316 317 315 314 309 308 305 304 304 300 300 306 307 305 309 315 315 316 318 322 329 332 333 334 334 334 335 335 334 331 329 330 332
326 326 324 323 320 318 321 322 319 316 313 312 311 311 311 309 308 305 304 302 303 298 300 303 306 310 314 314 317 320 324 327 330 333 335 335 335 335 336 336 335 334 335 336
318 319 319 318 317 318 320 319 317 315 314 313 311 310 308 306 305 305 303 301 301 299 297 299 305 310 313 315 319 323 326 329 332 334 335 336 337 338 339 339 339 339 339 339
311 311 313 313 314 315 318 319 316 313 315 313 313 312 309 306 307 308 308 301 298 297 297 300 303 308 310 315 320 323 326 329 334 338 339 339 341 342 342 341 341 342 343 342
308 309 311 312 313 314 315 315 313 311 310 313 314 313 312 308 305 305 306 306 299 294 294 297 301 306 310 314 318 322 325 328 334 338 341 343 344 344 344 344 345 345 345 344
307 308 310 310 310 311 311 311 310 309 311 314 315 315 312 310 305 299 300 302 300 298 298 297 300 304 308 312 318 324 327 330 335 339 342 344 345 345 346 347 347 346 347 346
303 306 309 309 309 309 308 307 307 308 310 312 313 313 313 312 309 302 299 300 301 302 304 302 302 306 309 312 319 325 330 334 337 339 342 344 345 347 348 348 348 348 348 347
299 303 306 307 306 306 306 306 306 306 309 310 310 312 313 314 313 308 303 301 301 303 304 308 310 311 312 315 319 323 328 333 337 339 342 344 346 349 350 350 350 349 349 348
296 300 302 303 303 302 302 302 304 305 305 307 306 310 315 317 316 312 307 302 302 305 305 307 311 314 315 317 320 323 329 335 339 342 344 346 349 350 352 352 351 350 350 349
Height
5817 5818 5817 5817 5817 5816 5816 5815 5815 5815 5815 5816 5816 5816 5816 5816 5816 5817 5816 5816 5816 5817 5818 5818 5819 5818 5817 5817 5817 5817 5816 5815 5815 5814 5812 5812 5811 5810 5809 5808 5807 5805 5803 5802
5817 5816 5816 5815 5814 5813 5813 5812 5812 5813 5812 5812 5812 5812 5812 5812 5812 5812 5812 5812 5812 5813 5814 5814 5814 5813 5813 5812 5811 5811 5811 5810 5809 5808 5807 5806 5806 5805 5803 5802 5800 5798 5796 5795
5815 5815 5814 5813 5812 5811 5811 5810 5810 5810 5809 5809 5809 5810 5810 5809 5808 5808 5808 5808 5809 5809 5809 5809 5809 5809 5808 5807 5807 5805 5805 5804 5803 5802 5802 5801 5800 5799 5797 5796 5794 5791 5789 5787
5813 5813 5812 5811 5810 5809 5809 5808 5807 5807 5806 5806 5807 5806 5807 5806 5806 5806 5805 5805 5805 5805 5805 5805 5805 5805 5804 5803 5802 5800 5800 5799 5798 5797 5796 5795 5794 5793 5791 5789 5787 5785 5782 5780
5812 5811 5810 5809 5808 5806 5806 5805 5805 5804 5803 5803 5803 5803 5804 5803 5803 5803 5802 5802 5802 5802 5802 5801 5801 5801 5800 5799 5798 5796 5795 5794 5793 5791 5790 5789 5787 5786 5784 5782 5780 5778 5775 5773
5810 5808 5807 5806 5805 5804 5803 5803 5802 5801 5801 5801 5801 5801 5801 5800 5800 5800 5799 5798 5798 5798 5798 5798 5798 5797 5796 5794 5793 5792 5791 5789 5788 5787 5785 5783 5781 5779 5777 5776 5773 5771 5768 5766
5809 5808 5806 5804 5803 5802 5801 5801 5800 5799 5798 5798 5798 5797 5798 5796 5796 5796 5795 5795 5795 5795 5794 5795 5794 5793 5792 5790 5789 5787 5785 5784 5783 5781 5779 5777 5775 5773 5771 5769 5766 5764 5762 5759
5808 5807 5805 5803 5802 5800 5799 5798 5798 5796 5795 5796 5795 5795 5795 5794 5793 5792 5792 5791 5791 5791 5791 5791 5790 5790 5788 5786 5785 5783 5781 5779 5777 5776 5774 5772 5770 5767 5765 5762 5760 5758 5755 5753
5807 5806 5804 5802 5800 5799 5798 5797 5796 5795 5794 5793 5793 5792 5792 5791 5790 5789 5789 5788 5788 5788 5788 5787 5787 5786 5784 5782 5780 5778 5776 5774 5772 5771 5769 5767 5765 5762 5759 5757 5754 5751 5748 5745
5807 5806 5804 5802 5800 5798 5797 5796 5795 5794 5792 5791 5791 5791 5790 5788 5788 5787 5786 5785 5785 5784 5784 5784 5783 5782 5780 5779 5777 5773 5771 5769 5768 5766 5764 5762 5759 5757 5754 5751 5749 5746 5743 5740
5807 5806 5804 5802 5800 5798 5797 5796 5794 5793 5791 5790 5789 5791 5788 5786 5785 5784 5783 5782 5782 5782 5781 5781 5780 5778 5777 5775 5773 5770 5768 5766 5764 5761 5759 5757 5754 5751 5749 5746 5744 5741 5738 5735
5806 5805 5803 5802 5800 5797 5796 5795 5793 5792 5790 5789 5788 5791 5786 5785 5783 5782 5781 5780 5779 5779 5778 5777 5776 5775 5774 5772 5770 5767 5765 5762 5760 5758 5755 5753 5750 5747 5744 5742 5739 5736 5733 5730
5806 5805 5803 5802 5801 5799 5796 5794 5792 5791 5789 5788 5787 5789 5785 5783 5782 5780 5779 5778 5777 5776 5776 5775 5773 5772 5771 5769 5767 5764 5762 5760 5757 5755 5752 5749 5746 5743 5740 5737 5734 5731 5728 5725
5806 5804 5803 5802 5799 5797 5795 5794 5791 5790 5788 5786 5786 5785 5783 5781 5780 5779 5777 5776 5775 5773 5773 5772 5771 5769 5768 5766 5764 5762 5760 5757 5754 5751 5748 5745 5742 5739 5736 5733 5731 5727 5724 5721
5805 5804 5802 5800 5798 5796 5795 5793 5791 5789 5787 5785 5784 5782 5781 5779 5778 5776 5775 5773 5772 5771 5770 5770 5768 5767 5765 5763 5761 5759 5757 5754 5751 5748 5745 5742 5739 5736 5733 5730 5727 5723 5720 5716
5805 5803 5801 5799 5798 5796 5794 5792 5790 5787 5785 5783 5782 5781 5778 5776 5775 5774 5772 5771 5770 5769 5768 5767 5766 5764 5762 5761 5759 5756 5754 5751 5749 5746 5743 5740 5737 5733 5730 5726 5723 5720 5716 5713
5804 5802 5800 5798 5796 5795 5793 5791 5788 5786 5784 5782 5780 5779 5776 5774 5773 5771 5770 5768 5767 5766 5765 5764 5763 5762 5760 5758 5756 5754 5751 5749 5746 5743 5740 5737 5734 5730 5727 5723 5720 5717 5713 5710
5802 5800 5798 5796 5796 5793 5793 5789 5787 5784 5782 5780 5777 5775 5773 5771 5770 5768 5767 5765 5764 5764 5763 5762 5761 5759 5757 5756 5754 5751 5749 5747 5744 5741 5738 5735 5731 5728 5724 5721 5717 5714 5710 5707
5801 5799 5797 5794 5792 5791 5789 5786 5784 5782 5779 5777 5775 5773 5771 5769 5767 5766 5764 5763 5762 5761 5760 5759 5758 5756 5755 5753 5751 5749 5747 5745 5742 5739 5736 5733 5730 5726 5722 5719 5715 5711 5708 5704
5799 5797 5796 5793 5790 5788 5787 5784 5781 5780 5777 5775 5772 5770 5768 5766 5765 5764 5762 5760 5759 5758 5757 5756 5755 5754 5752 5751 5749 5748 5746 5743 5740 5737 5734 5731 5728 5724 5720 5717 5713 5709 5706 5702
5797 5795 5793 5790 5788 5786 5784 5781 5779 5777 5775 5772 5770 5768 5765 5763 5762 5761 5759 5757 5756 5754 5754 5753 5752 5751 5750 5749 5747 5745 5744 5741 5739 5736 5733 5729 5726 5722 5718 5715 5711 5708 5704 5701
5794 5792 5790 5787 5785 5785 5780 5778 5776 5773 5770 5768 5766 5764 5762 5760 5758 5757 5755 5754 5752 5751 5751 5750 5750 5749 5748 5746 5745 5743 5741 5740 5737 5734 5731 5728 5725 5721 5717 5714 5710 5706 5703 5699
5790 5789 5786 5784 5783 5780 5776 5774 5771 5769 5767 5765 5763 5761 5759 5757 5755 5754 5752 5751 5749 5748 5748 5747 5747 5746 5745 5744 5743 5741 5739 5737 5735 5733 5730 5727 5724 5720 5717 5713 5709 5705 5701 5697
5787 5784 5782 5780 5778 5775 5773 5770 5768 5766 5764 5762 5760 5758 5756 5754 5752 5750 5749 5748 5747 5746 5746 5745 5745 5744 5743 5742 5740 5739 5737 5735 5733 5731 5728 5726 5723 5719 5716 5712 5708 5704 5700 5696
5782 5781 5779 5776 5774 5772 5769 5767 5764 5762 5761 5759 5757 5756 5753 5751 5749 5748 5746 5745 5745 5744 5743 5743 5742 5742 5741 5740 5738 5737 5735 5733 5731 5729 5727 5724 5721 5718 5715 5711 5707 5703 5699 5694
5778 5776 5774 5772 5770 5768 5766 5763 5761 5759 5758 5756 5754 5753 5751 5749 5747 5745 5744 5743 5742 5742 5741 5740 5740 5739 5739 5738 5736 5735 5733 5731 5730 5728 5726 5723 5720 5717 5714 5710 5706 5702 5697 5692